TIANMU-1 22

Last updated on Thu Nov 21 2024 00:02:20 GMT+0000 (Coordinated Universal Time)

1 58663U 23208D 24325.58902010 .00012793 00000+0 61069-3 0 9990 2 58663 97.4193 74.6051 0004634 192.3269 167.7853 15.19179436 49887
UTC large
Height (km)
Speed (km/s)
/
Latitude / Longitude
Inclination (degrees)
Orbital Period (minutes)
Azimuth
Elevation
Range (km)
Doppler Factor

Next 0 passes for location: London (51.5072 / 0.1276)

Sorry there are no passes over London.